When you browse on this site, cookies collect data to enhance your experience and personalize the content and advertising you see.
Visit our Privacy Policy to learn more. By continuing to use the site, you agree to this use of cookies and data.
  • In Lithuania
  • List of Countries
  • For 7 days
  • Water Temperature
  • Satellite Maps
  • Weather Map
  • Weather Widgets
  • user-avatar
    Login

    Hourly Weather Kulikovy Kopani

    Today, 22 February, Friday

    Time Temperature Precipitation Wind Pressure Humidity
    00:00 +1°C° 0 mm 4 mps 739 mmHg 76%
    01:00 +1°C° 0 mm 4 mps 739 mmHg 77%
    02:00 +1°C° 0 mm 5 mps 739 mmHg 78%
    03:00 +1°C° 0 mm 5 mps 739 mmHg 80%
    04:00 +1°C° 0 mm 5 mps 739 mmHg 78%
    05:00 +1°C° 0 mm 5 mps 739 mmHg 76%
    06:00 +1°C° 0 mm 6 mps 740 mmHg 74%
    07:00 -1°C° 0 mm 6 mps 740 mmHg 69%
    08:00 -1°C° 0 mm 7 mps 741 mmHg 64%
    09:00 -1°C° 0 mm 8 mps 741 mmHg 58%
    10:00 0°C° 0 mm 7 mps 741 mmHg 55%
    11:00 +2°C° 0 mm 6 mps 741 mmHg 52%
    12:00 +3°C° 0 mm 5 mps 741 mmHg 48%
    13:00 +4°C° 0 mm 4 mps 741 mmHg 50%
    14:00 +4°C° 0 mm 3 mps 741 mmHg 52%
    15:00 +6°C° 0 mm 2 mps 741 mmHg 54%
    16:00 +5°C° 0.1 mm 2 mps 741 mmHg 59%
    17:00 +6°C° 0.1 mm 1 mps 741 mmHg 64%
    18:00 +6°C° 0.1 mm 1 mps 742 mmHg 69%
    19:00 +6°C° 0.3 mm 1 mps 742 mmHg 71%
    20:00 +5°C° 0.3 mm 1 mps 742 mmHg 73%
    21:00 +4°C° 0.3 mm 2 mps 742 mmHg 75%
    22:00 +4°C° 0.1 mm 2 mps 742 mmHg 76%
    23:00 +4°C° 0.1 mm 2 mps 742 mmHg 76%

    Tomorrow, 23 February, Saturday

    Time Temperature Precipitation Wind Pressure Humidity
    00:00 +2°C° 0.1 mm 3 mps 742 mmHg 77%
    01:00 +2°C° 0 mm 3 mps 742 mmHg 78%
    02:00 +1°C° 0 mm 3 mps 742 mmHg 79%
    03:00 +1°C° 0 mm 3 mps 742 mmHg 80%
    04:00 +1°C° 0 mm 3 mps 742 mmHg 82%
    05:00 +1°C° 0 mm 2 mps 742 mmHg 83%
    06:00 +1°C° 0 mm 2 mps 742 mmHg 84%
    07:00 +1°C° 0 mm 3 mps 743 mmHg 83%
    08:00 +1°C° 0 mm 4 mps 743 mmHg 83%
    09:00 +1°C° 0 mm 5 mps 744 mmHg 82%
    10:00 +2°C° 0 mm 5 mps 744 mmHg 78%
    11:00 +3°C° 0 mm 5 mps 744 mmHg 74%
    12:00 +5°C° 0 mm 5 mps 744 mmHg 70%
    13:00 +6°C° 0 mm 5 mps 744 mmHg 67%
    14:00 +7°C° 0 mm 4 mps 744 mmHg 65%
    15:00 +7°C° 0 mm 4 mps 744 mmHg 62%
    16:00 +8°C° 0 mm 3 mps 744 mmHg 64%
    17:00 +7°C° 0 mm 3 mps 744 mmHg 67%
    18:00 +5°C° 0 mm 3 mps 745 mmHg 70%
    19:00 +5°C° 0 mm 3 mps 745 mmHg 71%
    20:00 +5°C° 0 mm 4 mps 745 mmHg 71%
    21:00 +5°C° 0 mm 4 mps 746 mmHg 71%
    22:00 +4°C° 0 mm 4 mps 746 mmHg 73%
    23:00 +4°C° 0 mm 4 mps 746 mmHg 74%

    Day after tomorrow, 24 February, Sunday

    Time Temperature Precipitation Wind Pressure Humidity
    00:00 +3°C° 0 mm 3 mps 746 mmHg 76%
    01:00 +3°C° 0 mm 3 mps 746 mmHg 78%
    02:00 +4°C° 0 mm 2 mps 747 mmHg 80%
    03:00 +3°C° 0 mm 2 mps 747 mmHg 83%
    04:00 +4°C° 0 mm 1 mps 747 mmHg 85%
    05:00 +3°C° 0 mm 1 mps 747 mmHg 87%
    06:00 +3°C° 0 mm 1 mps 747 mmHg 90%
    07:00 +3°C° 0 mm 1 mps 747 mmHg 86%
    08:00 +4°C° 0 mm 1 mps 747 mmHg 82%
    09:00 +5°C° 0 mm 1 mps 748 mmHg 78%
    10:00 +6°C° 0 mm 1 mps 748 mmHg 72%
    11:00 +7°C° 0 mm 1 mps 748 mmHg 66%
    12:00 +9°C° 0 mm 1 mps 748 mmHg 61%
    13:00 +9°C° 0 mm 1 mps 747 mmHg 60%
    14:00 +8°C° 0 mm 2 mps 747 mmHg 59%
    15:00 +9°C° 0 mm 3 mps 747 mmHg 58%
    16:00 +8°C° 0.1 mm 3 mps 748 mmHg 63%
    17:00 +6°C° 0.1 mm 4 mps 748 mmHg 69%
    18:00 +4°C° 0.1 mm 4 mps 748 mmHg 74%
    19:00 +4°C° 0.3 mm 4 mps 748 mmHg 78%
    20:00 +3°C° 0.3 mm 4 mps 749 mmHg 81%
    21:00 +1°C° 0.3 mm 4 mps 749 mmHg 84%
    22:00 0°C° 0.2 mm 4 mps 749 mmHg 85%
    23:00 -1°C° 0.2 mm 4 mps 749 mmHg 85%

    25 February, Monday

    Time Temperature Precipitation Wind Pressure Humidity
    00:00 -1°C° 0.2 mm 4 mps 749 mmHg 85%
    01:00 -1°C° 0.1 mm 4 mps 749 mmHg 85%
    02:00 -2°C° 0.1 mm 4 mps 749 mmHg 85%
    03:00 -2°C° 0.1 mm 4 mps 749 mmHg 84%
    04:00 -3°C° 0 mm 4 mps 749 mmHg 84%
    05:00 -3°C° 0 mm 4 mps 749 mmHg 84%
    06:00 -4°C° 0 mm 4 mps 749 mmHg 85%
    07:00 -3°C° 0 mm 4 mps 749 mmHg 82%
    08:00 -3°C° 0 mm 4 mps 749 mmHg 79%
    09:00 -3°C° 0 mm 4 mps 749 mmHg 77%
    10:00 -2°C° 0 mm 5 mps 749 mmHg 67%
    11:00 -1°C° 0 mm 5 mps 749 mmHg 58%
    12:00 0°C° 0 mm 5 mps 748 mmHg 49%
    13:00 +1°C° 0 mm 5 mps 748 mmHg 47%
    14:00 +1°C° 0 mm 5 mps 747 mmHg 45%
    15:00 +2°C° 0 mm 5 mps 746 mmHg 43%
    16:00 +1°C° 0 mm 5 mps 746 mmHg 48%
    17:00 0°C° 0 mm 4 mps 746 mmHg 52%
    18:00 0°C° 0 mm 4 mps 745 mmHg 57%
    19:00 -1°C° 0 mm 4 mps 745 mmHg 61%
    20:00 -1°C° 0 mm 4 mps 745 mmHg 65%
    21:00 -2°C° 0 mm 4 mps 744 mmHg 70%
    22:00 -2°C° 0 mm 5 mps 744 mmHg 74%
    23:00 -3°C° 0 mm 6 mps 743 mmHg 78%

    26 February, Tuesday

    Time Temperature Precipitation Wind Pressure Humidity
    00:00 -4°C° 0 mm 6 mps 742 mmHg 82%
    01:00 -4°C° 0 mm 7 mps 742 mmHg 81%
    02:00 -4°C° 0 mm 7 mps 741 mmHg 80%
    03:00 -4°C° 0 mm 7 mps 740 mmHg 79%
    04:00 -4°C° 0 mm 8 mps 740 mmHg 78%
    05:00 -4°C° 0 mm 8 mps 739 mmHg 77%
    06:00 -4°C° 0 mm 8 mps 738 mmHg 76%
    07:00 -4°C° 0.2 mm 9 mps 738 mmHg 76%
    08:00 -3°C° 0.2 mm 10 mps 737 mmHg 76%
    09:00 -3°C° 0.2 mm 10 mps 737 mmHg 75%
    10:00 -2°C° 0.3 mm 10 mps 736 mmHg 75%
    11:00 -2°C° 0.3 mm 10 mps 735 mmHg 74%
    12:00 0°C° 0.3 mm 10 mps 735 mmHg 73%
    13:00 0°C° 0.4 mm 9 mps 734 mmHg 75%
    14:00 0°C° 0.4 mm 9 mps 733 mmHg 76%
    15:00 0°C° 0.4 mm 8 mps 733 mmHg 78%
    16:00 -1°C° 0.2 mm 8 mps 733 mmHg 80%
    17:00 -1°C° 0.2 mm 7 mps 732 mmHg 81%
    18:00 -2°C° 0.2 mm 7 mps 732 mmHg 83%
    19:00 -3°C° 0 mm 7 mps 732 mmHg 84%
    20:00 -3°C° 0 mm 7 mps 732 mmHg 85%
    21:00 -4°C° 0 mm 7 mps 731 mmHg 87%
    22:00 -4°C° 0 mm 6 mps 731 mmHg 87%
    23:00 -4°C° 0 mm 5 mps 731 mmHg 88%

    27 February, Wednesday

    Time Temperature Precipitation Wind Pressure Humidity
    00:00 -4°C° 0 mm 5 mps 731 mmHg 89%
    01:00 -5°C° 0 mm 5 mps 730 mmHg 90%
    02:00 -4°C° 0 mm 4 mps 730 mmHg 90%
    03:00 -4°C° 0 mm 4 mps 730 mmHg 91%
    04:00 -4°C° 0 mm 3 mps 730 mmHg 91%
    05:00 -4°C° 0 mm 3 mps 730 mmHg 91%
    06:00 -4°C° 0 mm 3 mps 730 mmHg 91%
    07:00 -2°C° 0 mm 3 mps 730 mmHg 89%
    08:00 -2°C° 0 mm 3 mps 730 mmHg 86%
    09:00 -1°C° 0 mm 3 mps 730 mmHg 83%
    10:00 0°C° 0 mm 3 mps 730 mmHg 77%
    11:00 +1°C° 0 mm 2 mps 730 mmHg 70%
    12:00 +2°C° 0 mm 2 mps 730 mmHg 64%
    13:00 +3°C° 0 mm 2 mps 730 mmHg 62%
    14:00 +4°C° 0 mm 1 mps 730 mmHg 60%
    15:00 +4°C° 0 mm 1 mps 730 mmHg 58%
    16:00 +4°C° 0 mm 1 mps 730 mmHg 63%
    17:00 +3°C° 0 mm 1 mps 731 mmHg 68%
    18:00 +2°C° 0 mm 1 mps 731 mmHg 73%
    19:00 +2°C° 0 mm 1 mps 731 mmHg 77%
    20:00 +2°C° 0 mm 1 mps 732 mmHg 80%
    21:00 -1°C° 0 mm 2 mps 732 mmHg 83%
    22:00 -1°C° 0.1 mm 2 mps 732 mmHg 85%
    23:00 -1°C° 0.1 mm 2 mps 733 mmHg 87%
    Show more